FW5436 Weather Reports


Display with metric or nautical units.
time (UTC)temp
F
wind
direction
speed
MPH
gust
MPH
rain 1hr
in
rain 24hr
in
rain mn
in
humidity
%
barometer
mb
20260906083524 36 23 2.0 4.0 0.01 0.04 0.05 91 1029.9
20260906083013 36 45 1.0 4.0 0.01 0.04 0.05 91 1030.0
20260906082503 37 45 1.0 4.0 0.02 0.04 0.05 91 1029.7
20260906081953 37 68 1.0 4.0 0.02 0.04 0.05 91 1030.1
20260906081444 37 315 2.0 4.0 0.02 0.04 0.05 91 1029.9
20260906080934 37 45 2.0 4.0 0.02 0.04 0.05 91 1029.7
20260906080423 38 23 2.0 2.0 0.02 0.04 0.05 91 1029.8
20260906075913 38 68 0.0 2.0 0.02 0.04 0.05 91 1029.9
20260906074853 38 45 2.0 4.0 0.04 0.04 0.05 91 1029.8
20260906074344 38 338 1.0 2.0 0.04 0.04 0.05 91 1029.5
20260906073834 38 68 1.0 2.0 0.04 0.04 0.05 90 1029.5
20260906073322 38 45 0.0 4.0 0.02 0.02 0.04 90 1029.6
20260906072811 38 225 1.0 4.0 0.02 0.02 0.04 90 1029.8
20260906072305 38 135 0.0 2.0 0.01 0.01 0.02 89 1029.7
20260906071752 38 45 0.0 4.0 0.01 0.01 0.02 89 1029.7
20260906070732 38 23 2.0 6.0 0.01 0.01 0.02 89 1029.6
20260906065711 39 90 1.0 4.0 0.01 0.01 0.02 88 1029.7
20260906064651 39 135 1.0 4.0 0.00 0.00 0.01 87 1029.6
20260906064140 38 23 1.0 4.0 0.00 0.00 0.01 87 1029.3
20260906063631 38 113 2.0 4.0 0.00 0.00 0.01 87 1029.3
20260906063120 38 45 2.0 4.0 0.00 0.00 0.01 88 1029.2
20260906062100 38 23 1.0 4.0 0.00 0.00 0.01 87 1029.2
20260906061550 38 23 2.0 4.0 0.00 0.00 0.01 87 1029.3
20260906061040 38 0 2.0 4.0 0.00 0.00 0.01 87 1029.5
20260906060530 38 45 2.0 4.0 0.00 0.00 0.01 87 1029.5
20260906060019 38 0 1.0 4.0 0.00 0.00 0.01 88 1029.6
20260906055509 38 23 1.0 4.0 0.00 0.00 0.01 88 1029.5
20260906054959 37 338 2.0 4.0 0.00 0.00 0.01 88 1029.6
20260906054450 37 338 1.0 4.0 0.00 0.00 0.01 89 1029.8
20260906053938 37 90 1.0 2.0 0.00 0.00 0.01 89 1029.7
20260906053211 37 338 1.0 0.0 0.00 0.00 0.01 88 1029.4
20260906052719 38 293 1.0 2.0 0.00 0.06 0.01 88 1029.6
20260906052209 38 45 0.0 4.0 0.00 0.06 0.01 88 1029.5
20260906051659 38 45 1.0 4.0 0.00 0.06 0.01 87 1029.4
20260906051149 38 135 1.0 4.0 0.00 0.06 0.01 87 1029.5
20260906050639 39 68 2.0 7.0 0.00 0.06 0.01 86 1029.3
20260906050129 39 0 0.0 7.0 0.00 0.06 0.01 85 1029.4
20260906045619 39 45 2.0 6.0 0.00 0.06 0.01 83 1029.3
20260906045108 39 158 2.0 4.0 0.01 0.06 0.01 83 1029.3
20260906044048 39 68 0.0 4.0 0.01 0.06 0.01 83 1028.9
20260906043538 39 90 1.0 4.0 0.01 0.06 0.01 83 1029.1
20260906043033 39 68 2.0 6.0 0.01 0.06 0.01 82 1029.3
20260906042007 39 90 1.0 4.0 0.01 0.06 0.01 81 1028.9
20260906040947 39 23 2.0 4.0 0.01 0.06 0.01 80 1029.2
20260906040437 40 0 1.0 6.0 0.01 0.06 0.01 79 1029.1
20260906035417 40 180 1.0 4.0 0.00 0.05 0.00 79 1029.4
20260906034356 40 90 1.0 4.0 0.00 0.05 0.00 77 1029.1
20260906033848 40 45 2.0 4.0 0.00 0.05 0.00 77 1029.1
20260906033336 40 45 0.0 4.0 0.00 0.05 0.00 77 1029.0
20260906032826 40 23 1.0 2.0 0.00 0.05 0.00 77 1028.9
20260906031807 40 135 1.0 4.0 0.00 0.05 0.00 78 1028.9
20260906031255 40 90 1.0 4.0 0.00 0.05 0.00 78 1029.0
20260906030751 41 23 2.0 4.0 0.00 0.05 0.00 78 1028.9
20260906030235 40 293 1.0 4.0 0.00 0.05 0.00 79 1028.9
20260906025724 40 158 1.0 4.0 0.00 0.05 0.05 80 1028.8
20260906025215 40 90 2.0 4.0 0.00 0.05 0.05 81 1028.7
20260906024704 40 113 1.0 4.0 0.00 0.05 0.05 81 1028.8
20260906024155 40 0 2.0 4.0 0.00 0.05 0.05 81 1028.7
20260906023645 40 225 2.0 4.0 0.00 0.05 0.05 82 1028.9
20260906023134 40 0 2.0 4.0 0.00 0.05 0.05 83 1028.9
20260906022624 40 90 1.0 2.0 0.00 0.05 0.05 85 1028.6
20260906022114 40 270 1.0 2.0 0.00 0.05 0.05 85 1028.7
20260906021604 40 158 1.0 2.0 0.00 0.05 0.05 86 1028.7
20260906021053 40 158 0.0 4.0 0.00 0.05 0.05 87 1028.4
20260906020543 40 90 1.0 4.0 0.00 0.05 0.05 87 1028.6
20260906020034 40 23 1.0 4.0 0.00 0.05 0.05 88 1028.6
20260906015523 40 68 1.0 4.0 0.00 0.05 0.05 88 1028.6
20260906015013 40 158 1.0 4.0 0.00 0.05 0.05 88 1028.5
20260906014503 40 68 1.0 4.0 0.00 0.05 0.05 88 1028.4
20260906012932 40 45 1.0 4.0 0.01 0.05 0.05 88 1028.2
20260906011403 41 68 1.0 4.0 0.01 0.05 0.05 87 1028.0
20260906010852 41 68 2.0 4.0 0.01 0.05 0.05 87 1027.9
20260906010342 41 158 1.0 2.0 0.01 0.05 0.05 86 1027.9
20260906005832 41 180 1.0 4.0 0.01 0.05 0.05 86 1027.9
20260906005322 41 180 0.0 4.0 0.01 0.05 0.05 86 1027.8
20260906004811 41 0 2.0 4.0 0.01 0.05 0.05 85 1027.8
20260906004301 41 90 2.0 6.0 0.01 0.05 0.05 85 1027.9
20260906003751 42 113 2.0 8.0 0.01 0.05 0.05 84 1027.7
20260906003241 42 68 3.0 8.0 0.00 0.04 0.04 83 1027.7
20260906002730 42 45 2.0 4.0 0.00 0.04 0.04 82 1027.6
20260906001715 42 68 2.0 4.0 0.00 0.04 0.04 82 1027.0
20260906001201 42 158 2.0 4.0 0.00 0.04 0.04 83 1027.1
20260906000653 42 203 2.0 4.0 0.00 0.04 0.04 83 1027.1
20260905235631 42 158 1.0 4.0 0.00 0.04 0.04 85 1026.8
20260905235120 42 225 2.0 4.0 0.00 0.04 0.04 86 1026.8
20260905234609 42 270 2.0 4.0 0.00 0.04 0.04 86 1026.5
20260905234059 42 23 2.0 6.0 0.00 0.04 0.04 86 1026.6
20260905233550 43 45 1.0 7.0 0.00 0.04 0.04 86 1026.6
20260905233040 43 23 2.0 7.0 0.00 0.04 0.04 85 1026.6
20260905232530 43 203 2.0 6.0 0.00 0.04 0.04 84 1026.9
20260905232019 43 180 2.0 6.0 0.00 0.04 0.04 84 1026.4
20260905230959 43 248 1.0 4.0 0.00 0.04 0.04 85 1026.1
20260905230448 43 68 2.0 4.0 0.00 0.04 0.04 85 1026.1
20260905225939 43 90 1.0 4.0 0.00 0.04 0.04 85 1025.8
20260905225428 43 68 2.0 4.0 0.00 0.04 0.04 85 1025.9
20260905224408 43 158 2.0 7.0 0.00 0.04 0.04 86 1025.8
20260905223903 43 90 1.0 4.0 0.00 0.04 0.04 86 1025.5
20260905223348 43 90 2.0 4.0 0.01 0.04 0.04 86 1025.5
20260905222837 43 45 1.0 4.0 0.01 0.04 0.04 85 1025.3
20260905222327 43 23 2.0 4.0 0.01 0.04 0.04 85 1025.2
20260905221316 43 248 1.0 4.0 0.01 0.04 0.04 85 1025.3
20260905220757 43 203 2.0 6.0 0.01 0.04 0.04 85 1025.1
20260905220247 43 90 2.0 6.0 0.01 0.04 0.04 86 1025.0
20260905215736 44 90 2.0 6.0 0.01 0.04 0.04 86 1025.0
20260905215227 44 113 2.0 6.0 0.01 0.04 0.04 86 1024.9
20260905214716 44 90 2.0 7.0 0.01 0.04 0.04 85 1024.8
20260905214206 45 90 2.0 7.0 0.01 0.04 0.04 84 1024.7
20260905213656 45 180 1.0 6.0 0.00 0.02 0.02 81 1024.9
20260905213146 46 90 2.0 4.0 0.00 0.02 0.02 80 1024.5
20260905212636 46 113 2.0 15.0 0.00 0.02 0.02 78 1024.4
20260905211105 47 135 4.0 8.0 0.00 0.02 0.02 70 1024.2
20260905210555 47 135 2.0 4.0 0.00 0.02 0.02 70 1024.0
20260905210045 48 135 2.0 6.0 0.00 0.02 0.02 69 1023.9
20260905205534 48 203 2.0 8.0 0.00 0.02 0.02 70 1023.7
20260905205024 48 45 2.0 8.0 0.00 0.02 0.02 69 1024.0
20260905204515 48 90 3.0 7.0 0.00 0.02 0.02 68 1023.7
20260905204005 49 180 3.0 7.0 0.00 0.02 0.02 68 1023.8
20260905203454 49 45 2.0 8.0 0.00 0.02 0.02 64 1023.6
20260905201924 50 135 2.0 8.0 0.00 0.02 0.02 62 1023.3
20260905201415 51 180 3.0 11.0 0.00 0.02 0.02 62 1023.3
20260905200904 50 180 2.0 11.0 0.01 0.02 0.02 65 1023.0
20260905200353 50 45 3.0 9.0 0.01 0.02 0.02 65 1023.2
20260905195843 50 180 4.0 9.0 0.01 0.02 0.02 65 1023.1
20260905194313 49 135 3.0 8.0 0.01 0.02 0.02 69 1022.8
20260905193253 49 158 3.0 9.0 0.01 0.02 0.02 76 1022.8
20260905192742 50 68 3.0 9.0 0.01 0.02 0.02 77 1022.7
20260905192232 50 45 2.0 6.0 0.01 0.02 0.02 77 1022.7
20260905191722 50 180 2.0 6.0 0.01 0.02 0.02 77 1022.8
20260905191212 48 158 2.0 8.0 0.01 0.02 0.02 77 1022.7
20260905190702 49 203 4.0 9.0 0.00 0.01 0.01 75 1022.6
20260905185641 49 180 4.0 14.0 0.00 0.01 0.01 73 1022.4
20260905185131 50 90 4.0 14.0 0.00 0.01 0.01 73 1022.2
20260905184621 51 90 4.0 9.0 0.00 0.01 0.01 72 1022.3
20260905184111 50 135 3.0 9.0 0.00 0.01 0.01 72 1022.1
20260905183601 50 225 2.0 16.0 0.00 0.01 0.01 74 1022.1
20260905183051 52 113 2.0 16.0 0.01 0.01 0.01 71 1021.9
20260905182540 53 135 4.0 9.0 0.01 0.01 0.01 64 1021.9
20260905182030 52 135 3.0 9.0 0.01 0.01 0.01 69 1021.7
20260905181521 50 158 2.0 8.0 0.01 0.01 0.01 75 1021.7
20260905181010 50 68 2.0 8.0 0.01 0.01 0.01 75 1021.7
20260905180459 52 158 4.0 9.0 0.01 0.01 0.01 71 1021.6
20260905175949 52 203 4.0 9.0 0.01 0.01 0.01 70 1021.7
20260905175441 51 90 2.0 13.0 0.01 0.01 0.01 72 1021.5
20260905174930 52 203 2.0 13.0 0.01 0.01 0.01 73 1021.5
20260905174419 50 23 1.0 7.0 0.01 0.01 0.01 75 1021.7
20260905173359 49 90 2.0 11.0 0.00 0.00 0.00 74 1021.6
20260905172849 51 68 4.0 8.0 0.00 0.00 0.00 68 1021.7
20260905172340 52 68 4.0 7.0 0.00 0.00 0.00 64 1021.5
20260905171829 55 23 2.0 7.0 0.00 0.00 0.00 59 1021.2
20260905171318 54 90 2.0 8.0 0.00 0.00 0.00 60 1021.3
20260905170808 54 90 4.0 8.0 0.00 0.00 0.00 58 1021.4
20260905165238 53 90 3.0 9.0 0.00 0.00 0.00 60 1021.3
20260905164728 54 203 2.0 7.0 0.00 0.00 0.00 60 1021.2
20260905164228 54 45 4.0 9.0 0.00 0.00 0.00 59 1021.1
20260905163707 54 90 4.0 9.0 0.00 0.00 0.00 62 1021.2
20260905163159 53 23 2.0 8.0 0.00 0.00 0.00 62 1021.1
20260905162647 54 248 4.0 8.0 0.00 0.00 0.00 63 1021.1
20260905162137 53 135 2.0 7.0 0.00 0.00 0.00 61 1021.2
20260905161626 53 90 3.0 11.0 0.00 0.00 0.00 63 1021.2
20260905161116 52 225 4.0 13.0 0.00 0.00 0.00 65 1021.2
20260905160100 50 203 3.0 7.0 0.00 0.00 0.00 71 1021.2
20260905155037 53 180 2.0 7.0 0.00 0.00 0.00 65 1021.4
20260905154526 52 0 2.0 7.0 0.00 0.00 0.00 68 1021.2
20260905154015 51 23 1.0 6.0 0.00 0.00 0.00 74 1021.2
20260905152955 51 158 2.0 4.0 0.00 0.00 0.00 75 1021.2
20260905152446 50 23 2.0 4.0 0.00 0.00 0.00 78 1021.2
20260905151935 49 68 1.0 4.0 0.00 0.00 0.00 80 1021.3
20260905151426 47 90 2.0 6.0 0.00 0.00 0.00 79 1021.2
20260905150404 50 23 4.0 9.0 0.00 0.00 0.00 72 1021.4
20260905145854 52 180 3.0 9.0 0.00 0.00 0.00 65 1021.0
20260905145344 52 45 2.0 4.0 0.00 0.00 0.00 71 1021.0
20260905144834 51 68 2.0 7.0 0.00 0.00 0.00 75 1020.9
20260905144325 50 180 2.0 8.0 0.00 0.00 0.00 75 1020.8
20260905143814 50 135 2.0 8.0 0.00 0.00 0.00 74 1020.9
20260905143304 52 68 3.0 8.0 0.00 0.00 0.00 66 1020.9
20260905142754 52 225 2.0 7.0 0.00 0.00 0.00 66 1020.6
20260905142244 52 113 3.0 8.0 0.00 0.00 0.00 66 1020.6
20260905141734 50 113 2.0 9.0 0.00 0.00 0.00 70 1020.7
20260905141223 51 270 3.0 9.0 0.00 0.00 0.00 70 1020.6
20260905140713 53 180 3.0 6.0 0.00 0.00 0.00 68 1020.7
20260905140203 52 45 3.0 8.0 0.00 0.00 0.00 69 1020.7
20260905135653 52 248 2.0 8.0 0.00 0.00 0.00 70 1020.8
20260905135143 52 113 2.0 7.0 0.00 0.00 0.00 69 1020.6
20260905134632 51 23 3.0 7.0 0.00 0.00 0.00 72 1020.4
20260905134122 49 90 2.0 8.0 0.00 0.00 0.00 76 1020.6
20260905133102 50 68 2.0 8.0 0.00 0.00 0.00 75 1020.5
20260905132552 49 45 4.0 8.0 0.00 0.00 0.00 76 1020.3
20260905132042 49 203 2.0 8.0 0.00 0.00 0.00 75 1020.5
20260905131532 50 45 2.0 7.0 0.00 0.00 0.00 74 1020.2
20260905130512 49 68 3.0 11.0 0.00 0.00 0.00 77 1020.3
20260905130005 49 45 3.0 7.0 0.00 0.00 0.00 77 1020.2
20260905125451 50 23 4.0 8.0 0.00 0.00 0.00 75 1020.0
20260905123921 49 23 3.0 7.0 0.00 0.00 0.00 77 1020.0
20260905123411 48 68 2.0 8.0 0.00 0.00 0.00 79 1020.0
20260905122901 47 0 2.0 8.0 0.00 0.00 0.00 79 1019.9
20260905121330 47 338 2.0 8.0 0.00 0.00 0.00 80 1019.7
20260905120819 47 90 2.0 8.0 0.00 0.00 0.00 81 1019.7
20260905120310 46 23 2.0 7.0 0.00 0.00 0.00 81 1019.3
20260905115800 46 45 3.0 8.0 0.00 0.00 0.00 82 1019.5
20260905114740 45 248 2.0 6.0 0.00 0.00 0.00 83 1019.2
20260905114229 45 23 2.0 6.0 0.00 0.00 0.00 84 1019.3
20260905113209 44 45 2.0 7.0 0.00 0.00 0.00 87 1019.0
20260905112713 43 0 2.0 7.0 0.00 0.00 0.00 88 1019.0
20260905112149 42 68 1.0 6.0 0.00 0.00 0.00 90 1018.8
20260905111639 42 248 2.0 6.0 0.00 0.00 0.00 90 1018.7
20260905111128 42 90 2.0 6.0 0.00 0.00 0.00 90 1018.6
20260905110619 42 113 1.0 4.0 0.00 0.00 0.00 91 1018.8
20260905110108 41 158 3.0 6.0 0.00 0.00 0.00 92 1018.6
20260905105558 41 68 2.0 6.0 0.00 0.00 0.00 92 1018.5
20260905105048 41 45 0.0 4.0 0.00 0.00 0.00 92 1018.6
20260905104542 41 0 2.0 6.0 0.00 0.00 0.00 92 1018.6
20260905104028 40 23 2.0 6.0 0.00 0.00 0.00 92 1018.5
20260905103517 40 203 2.0 6.0 0.00 0.00 0.00 92 1018.3
20260905103008 40 45 2.0 6.0 0.00 0.00 0.00 92 1018.2
20260905101947 41 0 2.0 6.0 0.00 0.00 0.00 92 1018.2
20260905100926 41 90 2.0 6.0 0.00 0.00 0.00 91 1018.1
20260905100416 41 45 2.0 4.0 0.00 0.00 0.00 92 1018.2
20260905095907 41 23 2.0 4.0 0.00 0.00 0.00 92 1017.9
20260905095357 41 293 1.0 4.0 0.00 0.00 0.00 92 1017.7
20260905094846 41 90 1.0 4.0 0.00 0.00 0.00 92 1017.9
20260905094336 41 68 2.0 4.0 0.00 0.00 0.00 92 1017.5
20260905093826 41 45 2.0 4.0 0.00 0.00 0.00 92 1017.7
20260905093316 41 45 2.0 4.0 0.00 0.00 0.00 91 1017.4
20260905092806 41 23 2.0 6.0 0.00 0.00 0.00 91 1017.5
20260905092255 41 45 2.0 6.0 0.00 0.00 0.00 91 1017.3
20260905091748 41 113 2.0 4.0 0.00 0.00 0.00 91 1017.2
20260905091235 41 113 2.0 7.0 0.00 0.00 0.00 91 1017.3
20260905090726 41 45 3.0 7.0 0.00 0.00 0.00 91 1017.2
20260905090214 41 315 3.0 6.0 0.00 0.00 0.00 91 1017.1
20260905085705 41 203 1.0 6.0 0.00 0.00 0.00 91 1017.1
20260905085154 41 23 1.0 6.0 0.00 0.00 0.00 91 1016.8
20260905084644 41 338 2.0 4.0 0.00 0.00 0.00 91 1016.9
20260905084136 41 293 2.0 4.0 0.00 0.00 0.00 91 1016.9